This is the latest recevied weather packets stored in our database for station/object KB3KAV. If no packets are shown the sender has not sent any weather packets the latest 10 day(s).
| Time | Temp. | Humidity | Pressure | Rain* | Wind** | Luminosity | Snow |
|---|---|---|---|---|---|---|---|
| 1787587214 | 19.44° C | 69% | 1044.1 hPa | 0 mm | - | 738 W/m² | - |
| 1787586614 | 20° C | 73% | 1044.1 hPa | 0 mm | - | 649 W/m² | - |
| 1787586012 | 19.44° C | 70% | 1044 hPa | 0 mm | - | 462 W/m² | - |
| 1787585407 | 19.44° C | 74% | 1044 hPa | 0 mm | - | 296 W/m² | - |
| 1787584803 | 18.89° C | 75% | 1044.2 hPa | 0 mm | - | 396 W/m² | - |
| 1787584201 | 18.89° C | 73% | 1044.3 hPa | 0 mm | - | 429 W/m² | - |
| 1787583596 | 18.33° C | 73% | 1044 hPa | 0 mm | - | 403 W/m² | - |
| 1787582996 | 18.33° C | 74% | 1044.2 hPa | 0 mm | - | 435 W/m² | - |
| 1787582393 | 18.89° C | 75% | 1044.2 hPa | 0 mm | - | 586 W/m² | - |
| 1787581788 | 18.33° C | 74% | 1043.9 hPa | 0 mm | - | 550 W/m² | - |
| 1787581183 | 17.78° C | 76% | 1044 hPa | 0 mm | - | 555 W/m² | - |
| 1787580581 | 17.22° C | 78% | 1043.9 hPa | 0 mm | - | 501 W/m² | - |
| 1787579976 | 17.22° C | 79% | 1043.8 hPa | 0 mm | - | 448 W/m² | - |
| 1787579371 | 17.22° C | 81% | 1043.8 hPa | 0 mm | - | 408 W/m² | - |
| 1787578768 | 16.67° C | 83% | 1043.5 hPa | 0 mm | - | 379 W/m² | - |
| 1787578168 | 16.67° C | 85% | 1043.7 hPa | 0 mm | - | 345 W/m² | - |
| 1787577565 | 16.67° C | 86% | 1043.5 hPa | 0 mm | - | 323 W/m² | - |
| 1787576964 | 16.67° C | 88% | 1043.4 hPa | 0 mm | - | 146 W/m² | - |
| 1787576360 | 16.11° C | 88% | 1043.7 hPa | 0 mm | - | 77 W/m² | - |
| 1787575755 | 16.11° C | 89% | 1043.2 hPa | 0 mm | - | 72 W/m² | - |
| 1787575153 | 15.56° C | 90% | 1043.3 hPa | 0 mm | - | 89 W/m² | - |
| 1787574553 | 15.56° C | 91% | 1043.5 hPa | 0 mm | - | 75 W/m² | - |
| 1787573953 | 14.44° C | 94% | 1043.4 hPa | 0 mm | - | 70 W/m² | - |
| 1787573348 | 13.33° C | 95% | 1043.5 hPa | 0 mm | - | 53 W/m² | - |
| 1787572746 | 12.78° C | 95% | 1043.4 hPa | 0 mm | - | 44 W/m² | - |
* Rain latest hour (hover to see other rain measurements)
** Current wind speed in m/s (hover to see current wind gust speed)